Location: Lake Almanor
(40.2485°N, 121.1442°W)
Time: 10:47:28
(UTC-08:00)

STARLINK-1069 - Pass Details

Date: 01 February 2020
Orbit: 349 x 351 km, 53.0° (Epoch: 18 February)

Event Time Altitude Azimuth Distance (km) Brightness Sun altitude
Rises 18:33:54 0° 307° (NW) 2,164 7.3 -13.8°
Reaches altitude 10° 18:35:55 10° 305° (NW) 1,318 6.2 -14.2°
Maximum altitude 18:38:50 70° 222° (SW) 377 2.9 -14.7°
Enters shadow 18:40:42 20° 141° (SE) 890 4.4 -15.1°
